Satellite-Ground Cal/Val Site Overpasses Predictions

Prediction of Satellite NPP Overpassing Cal/Val Site: Antarctic Dome C

Ground Cal/Val Site Location: Latitude: -75.10, Longitude: 123.35; Satellite-Ground Site NADIR distance within 100 km.

Table of predicted overpasses for the next 14.0 days since TLE Epoch: 2/23/2025
Interval Starting Time Ending Time Minimum Distance Time Minimum Distance (km)
1 02/23/2025 07:19:50 02/23/2025 07:20:10 02/23/2025 07:20:00 73.77
2 02/25/2025 15:02:04 02/25/2025 15:02:27 02/25/2025 15:02:15 62.69
3 02/26/2025 14:43:12 02/26/2025 14:43:37 02/26/2025 14:43:24 46.80
4 02/27/2025 07:44:53 02/27/2025 07:45:13 02/27/2025 07:45:03 70.80
5 02/28/2025 07:26:00 02/28/2025 07:26:27 02/28/2025 07:26:13 37.12
6 03/02/2025 15:08:27 03/02/2025 15:08:28 03/02/2025 15:08:27 99.75
7 03/03/2025 14:49:22 03/03/2025 14:49:51 03/03/2025 14:49:37 11.81
8 03/05/2025 07:32:10 03/05/2025 07:32:39 03/05/2025 07:32:24 3.18
